Flag for Germany Weather past 2 weeks in Elmshorn, Schleswig-Holstein, Germany

Now
41 °F

Clear.


Feels Like: 34 °F
Forecast: 37 / 46 °F
Wind: 12 mph from South

Location: Hamburg-Fuhlsbuettel

Current Time: Feb 28, 2015 at 7:09:03 PM

Latest Report: Feb 28, 2015 at 6:20 PM


Visibility: 10 mi

Pressure: 29.92 "Hg

Humidity: 66%

Dew point: 30 °F

Location of ElmshornLocation

Historic Weather in Elmshorn — Graph

°F

Elmshorn temperature yesterday

Maximum temperature yesterday: 43 °F (at 12:20 PM)
Minimum temperature yesterday: 34 °F (at 11:50 PM)
Average temperature yesterday: 39 °F

Past Weeks' High & Low Weather Summary

 TemperatureHumidityPressure
High50 °F (Feb 14, 2:20 PM)100% (Feb 13, 5:50 PM)30.69 "Hg (Feb 13, 5:50 PM)
Low28 °F (Feb 17, 3:50 AM)54% (Feb 14, 2:20 PM)29.24 "Hg (Feb 21, 9:50 AM)
Average38 °F86%29.94 "Hg
* Reported Feb 13 5:20 PM — Feb 28 5:50 PM, Elmshorn, Weather by CustomWeather, © 2015

Note: Actual official high and low records may vary slightly from our data, if they occured in-between our weather recording intervals... More about our weather records

Advertising

Elmshorn weather history for previous 24 hours

 ConditionsComfort  
Time TempWeatherWind HumidityBarometerVisibility
5:50 PM
Sat, Feb 28
41 °FSunny.12 mph66%29.92 "Hg10 mi
5:20 PM43 °FSunny.13 mph61%29.92 "Hg10 mi
4:50 PM43 °FPassing clouds.15 mph61%29.95 "HgN/A
4:20 PM43 °FPassing clouds.16 mph61%29.95 "HgN/A
3:50 PM43 °FPassing clouds.14 mph61%29.98 "HgN/A
3:20 PM43 °FPassing clouds.15 mph61%29.98 "HgN/A
2:50 PM43 °FPassing clouds.16 mph66%30.01 "HgN/A
2:20 PM43 °FScattered clouds.18 mph66%30.01 "HgN/A
1:50 PM43 °FScattered clouds.15 mph66%30.01 "HgN/A
1:20 PM43 °FScattered clouds.15 mph66%30.04 "HgN/A
12:50 PM45 °FScattered clouds.15 mph66%30.04 "HgN/A
12:20 PM41 °FScattered clouds.17 mph70%30.04 "HgN/A
11:50 AM41 °FScattered clouds.14 mph70%30.04 "HgN/A
11:20 AM41 °FScattered clouds.14 mph70%30.07 "HgN/A
10:50 AM39 °FPassing clouds.10 mph75%30.07 "HgN/A
10:20 AM37 °FPartly sunny.9 mph87%30.07 "HgN/A
9:50 AM37 °FPartly sunny.9 mph87%30.07 "HgN/A
9:20 AM36 °FPartly sunny.9 mph93%30.09 "HgN/A
8:50 AM34 °FPartly sunny.6 mph100%30.07 "HgN/A
8:20 AM32 °FScattered clouds.7 mph100%30.07 "HgN/A
7:50 AM34 °FPartly sunny.8 mph100%30.07 "HgN/A
7:20 AM32 °FScattered clouds.7 mph100%30.07 "HgN/A
6:50 AM32 °FPassing clouds.6 mph100%30.07 "HgN/A
6:20 AM32 °FPassing clouds.6 mph100%30.07 "HgN/A
5:50 AM34 °FPassing clouds.3 mph100%30.07 "HgN/A
5:20 AM36 °FPassing clouds.6 mph93%30.07 "HgN/A
4:50 AM34 °FPassing clouds.5 mph100%30.07 "HgN/A
4:20 AM36 °FPassing clouds.3 mph93%30.07 "HgN/A
3:50 AM36 °FPassing clouds.6 mph100%30.07 "HgN/A
3:20 AM34 °FPassing clouds.7 mph100%30.07 "HgN/A
2:50 AM34 °FPassing clouds.7 mph100%30.07 "HgN/A
2:20 AM34 °FPassing clouds.6 mph100%30.07 "HgN/A
1:50 AM34 °FPassing clouds.3 mph100%30.07 "HgN/A
1:20 AM32 °FPassing clouds.2 mph100%30.07 "HgN/A
12:50 AM32 °FPassing clouds.1 mph100%30.07 "HgN/A
12:20 AM32 °FPassing clouds.No wind100%30.07 "HgN/A
11:50 PM
Fri, Feb 27
34 °FPassing clouds.2 mph100%30.07 "HgN/A
11:20 PM36 °FPassing clouds.6 mph93%30.07 "HgN/A
10:50 PM36 °FPassing clouds.8 mph93%30.07 "HgN/A
10:20 PM36 °FPassing clouds.9 mph93%30.04 "HgN/A
9:50 PM37 °FPassing clouds.10 mph87%30.04 "HgN/A
9:20 PM37 °FPassing clouds.10 mph93%30.04 "HgN/A
8:50 PM37 °FPassing clouds.9 mph93%30.01 "HgN/A
8:20 PM39 °FPassing clouds.8 mph87%30.01 "HgN/A
7:50 PM39 °FPassing clouds.8 mph87%30.01 "HgN/A
7:20 PM39 °FPassing clouds.8 mph87%29.98 "HgN/A
Weather by CustomWeather, © 2015

See weather overviewHow to use our weather pages